Вернуться в каталог

STARLINK-4564

АктивенСвязьVLEO
NORAD 53560·PAYLOAD·🇺🇸 United States

Запущен Aug 19, 2022 с Cape Canaveral Space Force Station

Loading…

Ближайшие Пролёты (ближайшие 24 часа)

TLE

СвежийSource: CelesTrak SupGP

Эпоха: Sep 14, 2026, 13:17 UTC

1 53560C 22101AK  26257.55395833  .00022773  00000+0  73223-3 0  2575
2 53560  53.1563 277.4799 0001233  77.5598 293.4525 15.31694247    12

Отслеживайте STARLINK-4564 в реальном времени с AllMySat

Download on the App Store